[[{"header":{"parameterUnit":"m.s-1","parameterCategory":1,"la1":30.2991,"la2":30.254,"lo1":-89.0895,"lo2":-89.0444,"dy":0.0017,"dx":0.0017,"nx":28,"ny":28,"refTime":"2024-08-22T09:00:00:Z","depth":0,"parameterNumber":2,"parameterNumberName":"U-component_of_WINDS"},"data":[0,0,0,0,0,0,0,0,0,0,0,0,0,0,0,0,0,0,0,0,0,0,0,0,0,0,0,0,0,0,0,0,0,0,0,0,0,0,0,0,0,0,0,0,0,0,0,0,0,0,0,0,0,0,0,0,0,0,-5.0462,-5.0464,0,-5.0616,-5.0618,-5.0619,-5.0557,-5.0554,-5.055,-5.0547,-5.0703,-5.0711,-5.0718,0,0,0,0,0,0,0,0,0,0,0,0,0,-5.0114,-5.012,-5.0462,-5.0464,-5.0466,-5.0616,-5.0618,-5.062,-5.0558,-5.0553,-5.0549,-5.0545,-5.0701,-5.071,-5.0719,0,0,0,0,0,0,0,0,0,0,0,0,0,-5.0266,-5.0123,-5.0462,-5.0453,-5.0454,-5.0615,-5.0618,-5.062,-5.0559,-5.0553,-5.0548,-5.0543,-5.0698,-5.0709,-5.072,-5.0899,0,0,-5.0755,-5.076,0,0,0,0,0,0,0,0,-5.0257,-5.0279,-5.0453,-5.0454,-5.0455,-5.0562,-5.0552,-5.0714,-5.056,-5.0519,-5.0546,-5.054,-5.0661,-5.0675,-5.0715,-5.0906,-5.0913,-5.0756,-5.0762,-5.0767,-5.0771,0,0,0,0,0,0,0,-5.0247,-5.0272,-5.0523,-5.0455,-5.0457,-5.0441,-5.0457,-5.0583,-5.0618,-5.0522,-5.0518,-5.0537,-5.066,-5.0705,-5.0719,-5.0915,-5.0755,-5.0765,-5.0772,-5.0777,-5.1257,-5.1263,0,0,0,0,0,0,-5.0236,-5.0263,-5.0518,-5.0528,-5.0341,-5.0452,-5.0469,-5.0533,-5.0617,-5.0624,-5.0542,-5.0534,-5.0688,-5.0705,-5.0724,-5.0936,-5.0767,-5.0778,-5.0784,-5.1251,-5.1259,-5.1265,0,0,0,0,0,0,-5.0229,-5.026,-5.0512,-5.0395,-5.0425,-5.0464,-5.0536,-5.0539,-5.0583,-5.0632,-5.0637,-5.058,-5.0684,-5.0708,-5.0855,-5.0941,-5.0783,-5.0793,-5.1244,-5.1254,-5.1262,-5.1364,0,0,0,0,0,0,-5.0219,-5.0257,-5.0326,-5.0397,-5.0432,-5.0641,-5.0541,-5.0546,-5.0603,-5.0594,-5.0669,-5.0677,-5.0682,-5.0839,-5.0866,-5.0953,-5.0802,-5.1237,-5.1249,-5.1259,-5.1353,-5.1375,-5.1394,0,0,0,0,0,-5.0207,-5.0349,-5.033,-5.0361,-5.0519,-5.0646,-5.0667,-5.067,-5.061,-5.0679,-5.071,-5.0674,-5.0928,-5.0854,-5.0885,-5.0977,-5.1231,-5.1245,-5.1258,-5.1343,-5.137,-5.1393,0,0,0,0,0,0,-5.0287,-5.0358,-5.0338,-5.0507,-5.0571,-5.0636,-5.0722,-5.0699,-5.0781,-5.0769,-5.077,-5.0787,-5.0939,-5.0973,-5.089,-5.1153,-5.107,-5.1091,-5.1124,-5.1151,-5.1171,-5.1158,-5.0812,0,0,0,0,0,-5.0325,-5.0423,-5.048,-5.0623,-5.0657,-5.0684,-5.074,-5.0737,-5.0804,-5.083,-5.0872,-5.0938,-5.1031,-5.1093,-5.1183,-5.1358,-5.1372,-5.1437,-5.1457,-5.1474,-5.149,-5.1583,-5.1611,-5.1309,-5.1309,-5.1309,0,0,-5.0403,-5.0454,-5.0516,-5.0641,-5.069,-5.0791,-5.0708,-5.0818,-5.0892,-5.0847,-5.0987,-5.1021,-5.1094,-5.1255,-5.1329,-5.1289,-5.1577,-5.1491,-5.1504,-5.1511,-5.16,-5.1628,-5.1654,-5.1318,-5.1317,-5.1315,0,0,-5.0596,-5.0646,-5.0769,-5.0821,-5.0897,-5.0914,-5.0944,-5.1013,-5.1032,-5.1174,-5.1141,-5.123,-5.1393,-5.1445,-5.1493,-5.1706,-5.1676,-5.1736,-5.1842,-5.1933,-5.1956,-5.1977,-5.205,-5.2077,-5.1753,-5.1753,-5.1753,0,-5.0684,-5.0834,-5.0836,-5.0949,-5.1004,-5.0968,-5.1092,-5.1142,-5.1243,-5.1282,-5.1236,-5.1438,-5.1485,-5.1657,-5.1708,-5.175,-5.1782,-5.1726,-5.1953,-5.1974,-5.1994,-5.2063,-5.2091,-5.176,-5.1759,-5.1758,-5.1758,0,-5.0936,-5.1042,-5.1132,-5.123,-5.1296,-5.1414,-5.1433,-5.1499,-5.1491,-5.1513,-5.1656,-5.1712,-5.181,-5.1852,-5.1845,-5.2023,-5.1995,-5.1952,-5.1868,-5.2029,-5.2094,-5.2121,-5.1769,-5.1767,-5.1765,-5.1763,0,0,-5.1183,-5.128,-5.1313,-5.1356,-5.1437,-5.1518,-5.1635,-5.1731,-5.1786,-5.1858,-5.1954,-5.2092,-5.2052,-5.2107,-5.2106,-5.2186,-5.2347,-5.2132,-5.2133,-5.2167,-5.2543,-5.2573,-5.2604,-5.2329,-5.2334,-5.2338,-5.2536,0,-5.138,-5.1583,-5.1588,-5.1774,-5.1869,-5.1837,-5.1938,-5.1998,-5.2022,-5.2106,-5.2133,-5.2229,-5.2171,-5.2203,-5.2281,-5.2311,-5.2422,-5.2297,-5.2416,-5.242,-5.2395,-5.2638,-5.2671,-5.2854,-5.2562,-5.2566,-5.2569,0,-5.1636,-5.1715,-5.191,-5.1975,-5.2016,-5.2106,-5.2194,-5.2276,-5.2343,-5.2355,-5.2416,-5.2403,-5.252,-5.2435,-5.2596,-5.2511,-5.256,-5.2583,-5.259,-5.2598,-5.2502,-5.265,-5.2913,-5.294,-5.261,-5.2607,-5.2604,0,-5.1792,-5.1948,-5.2083,-5.2122,-5.2203,-5.2266,-5.2303,-5.2365,-5.2422,-5.25,-5.2536,-5.2627,-5.2675,-5.2745,-5.2756,-5.2694,-5.2917,-5.2834,-5.2928,-5.2928,-5.2974,-5.297,-5.3245,-5.3011,-5.3011,-5.301,-5.301,0,-5.201,-5.213,-5.2154,-5.2238,-5.2371,-5.2375,-5.2507,-5.2538,-5.2594,-5.2682,-5.266,-5.2743,-5.2755,-5.2841,-5.2851,-5.298,-5.3004,-5.3015,-5.3016,-5.3015,-5.3013,-5.3045,-5.3031,-5.3018,-5.3016,-5.3015,-5.3013,0,-5.2205,-5.2227,-5.2372,-5.2437,-5.2456,-5.2551,-5.2605,-5.2685,-5.2707,-5.2818,-5.2845,-5.2879,-5.2979,-5.2998,-5.3117,-5.3123,-5.3277,-5.3266,-5.3254,-5.3251,-5.3343,-5.3333,-5.3646,-5.3685,-5.3429,-5.3431,-5.3434,0,-5.2341,-5.2432,-5.2506,-5.2563,-5.2603,-5.2696,-5.2754,-5.2762,-5.2823,-5.2906,-5.2975,-5.3073,-5.3151,-5.3312,-5.3347,-5.3437,-5.3427,-5.353,-5.344,-5.3436,-5.3424,-5.3417,-5.3425,-5.3546,-5.3549,-5.3551,-5.3553,0,-5.2578,-5.2584,-5.2668,-5.2757,-5.2826,-5.2896,-5.2962,-5.3011,-5.3028,-5.3098,-5.3199,-5.326,-5.338,-5.3477,-5.3566,-5.3603,-5.3581,-5.3582,-5.3607,-5.3606,-5.3593,-5.3598,-5.3297,-5.3574,-5.3571,-5.357,-5.3569,-5.3568,-5.2745,-5.2824,-5.2887,-5.2981,-5.3032,-5.3095,-5.3171,-5.3203,-5.3288,-5.3385,-5.3386,-5.3497,-5.356,-5.3678,-5.3721,-5.3807,-5.3774,-5.3813,-5.3822,-5.383,-5.3837,-5.3583,-5.3824,-5.3824,-5.3823,-5.3823,-5.3822,0,-5.2978,-5.3017,-5.3104,-5.3197,-5.3271,-5.3244,-5.3316,-5.3379,-5.3477,-5.3539,-5.3616,-5.3732,-5.3825,-5.3868,-5.3959,-5.402,-5.4012,-5.4043,-5.4037,-5.4045,-5.3863,-5.383,-5.4048,-5.4048,-5.4048,-5.4048,-5.4048,-5.4048,-5.3107,-5.3238,-5.3251,-5.3406,-5.3445,-5.3553,-5.3596,-5.3652,-5.3701,-5.3831,-5.3909,-5.3936,-5.399,-5.4085,-5.4169,-5.4179,-5.4213,-5.4249,-5.4254,-5.4082,-5.4059,-5.4037,-5.4005,-5.4257,-5.4257,-5.4428,-5.4429,-5.4431]},{"header":{"parameterUnit":"m.s-1","parameterCategory":1,"la1":30.2991,"la2":30.254,"lo1":-89.0895,"lo2":-89.0444,"dy":0.0017,"dx":0.0017,"nx":28,"ny":28,"refTime":"2024-08-22T09:00:00:Z","depth":0,"parameterNumber":3,"parameterNumberName":"V-component_of_WINDS"},"data":[0,0,0,0,0,0,0,0,0,0,0,0,0,0,0,0,0,0,0,0,0,0,0,0,0,0,0,0,0,0,0,0,0,0,0,0,0,0,0,0,0,0,0,0,0,0,0,0,0,0,0,0,0,0,0,0,0,0,-0.4649,-0.4648,0,-0.4595,-0.4595,-0.4594,-0.4614,-0.4615,-0.4616,-0.4617,-0.4563,-0.456,-0.4558,0,0,0,0,0,0,0,0,0,0,0,0,0,-0.4767,-0.4764,-0.4649,-0.4648,-0.4648,-0.4596,-0.4595,-0.4594,-0.4613,-0.4615,-0.4616,-0.4618,-0.4563,-0.456,-0.4557,0,0,0,0,0,0,0,0,0,0,0,0,0,-0.4715,-0.4764,-0.4649,-0.4651,-0.4651,-0.4596,-0.4595,-0.4594,-0.4613,-0.4615,-0.4617,-0.4618,-0.4565,-0.4561,-0.4557,-0.4497,0,0,-0.4545,-0.4544,0,0,0,0,0,0,0,0,-0.4717,-0.471,-0.4651,-0.4651,-0.465,-0.4613,-0.4616,-0.4561,-0.4613,-0.4627,-0.4617,-0.4619,-0.4578,-0.4573,-0.4559,-0.4495,-0.4492,-0.4545,-0.4543,-0.4541,-0.454,0,0,0,0,0,0,0,-0.4721,-0.4713,-0.4628,-0.4651,-0.465,-0.4654,-0.4649,-0.4606,-0.4593,-0.4626,-0.4627,-0.4621,-0.4578,-0.4563,-0.4558,-0.4491,-0.4545,-0.4542,-0.4539,-0.4538,-0.4373,-0.4371,0,0,0,0,0,0,-0.4725,-0.4716,-0.463,-0.4626,-0.4689,-0.465,-0.4644,-0.4623,-0.4594,-0.4591,-0.4619,-0.4622,-0.4569,-0.4562,-0.4556,-0.4482,-0.4541,-0.4537,-0.4535,-0.4375,-0.4372,-0.437,0,0,0,0,0,0,-0.4727,-0.4717,-0.4632,-0.4671,-0.4661,-0.4647,-0.4622,-0.4621,-0.4606,-0.4589,-0.4586,-0.4606,-0.457,-0.4562,-0.4511,-0.4481,-0.4536,-0.4532,-0.4377,-0.4374,-0.4371,-0.4335,0,0,0,0,0,0,-0.4731,-0.4718,-0.4696,-0.4671,-0.4658,-0.4588,-0.4621,-0.4619,-0.4599,-0.4602,-0.4576,-0.4573,-0.457,-0.4517,-0.4507,-0.4476,-0.4529,-0.438,-0.4376,-0.4372,-0.4339,-0.4331,-0.4325,0,0,0,0,0,-0.4735,-0.4688,-0.4694,-0.4684,-0.463,-0.4586,-0.4579,-0.4577,-0.4597,-0.4574,-0.4562,-0.4574,-0.4486,-0.4511,-0.4501,-0.4468,-0.4382,-0.4377,-0.4372,-0.4342,-0.4333,-0.4325,0,0,0,0,0,0,-0.4711,-0.4685,-0.4692,-0.4635,-0.4613,-0.4589,-0.456,-0.4567,-0.4539,-0.4543,-0.4541,-0.4535,-0.4483,-0.4471,-0.45,-0.4408,-0.4437,-0.443,-0.4417,-0.4408,-0.4401,-0.4405,-0.4526,0,0,0,0,0,-0.4699,-0.4665,-0.4645,-0.4597,-0.4585,-0.4574,-0.4555,-0.4555,-0.4532,-0.4522,-0.4507,-0.4484,-0.4451,-0.4429,-0.4398,-0.4338,-0.4331,-0.431,-0.4303,-0.4297,-0.4291,-0.4256,-0.4245,-0.4354,-0.4355,-0.4355,0,0,-0.4674,-0.4656,-0.4635,-0.4592,-0.4574,-0.4538,-0.4566,-0.4528,-0.4502,-0.4517,-0.4467,-0.4455,-0.4429,-0.4373,-0.4347,-0.4361,-0.4259,-0.4291,-0.4287,-0.4283,-0.425,-0.4239,-0.423,-0.4351,-0.4352,-0.4352,0,0,-0.461,-0.4594,-0.4551,-0.4532,-0.4505,-0.4498,-0.4487,-0.4462,-0.4455,-0.4405,-0.4415,-0.4383,-0.4327,-0.4307,-0.429,-0.4216,-0.4225,-0.4206,-0.4168,-0.4134,-0.4125,-0.4117,-0.4089,-0.4079,-0.42,-0.42,-0.42,0,-0.4582,-0.453,-0.4528,-0.4488,-0.4468,-0.448,-0.4436,-0.4418,-0.4382,-0.4367,-0.4383,-0.4311,-0.4294,-0.4232,-0.4214,-0.42,-0.4187,-0.4208,-0.4126,-0.4119,-0.4112,-0.4085,-0.4074,-0.4197,-0.4198,-0.4198,-0.4198,0,-0.4496,-0.4459,-0.4428,-0.4391,-0.4368,-0.4327,-0.4318,-0.4294,-0.4296,-0.4287,-0.4235,-0.4216,-0.4179,-0.4165,-0.4167,-0.4103,-0.4112,-0.4127,-0.4156,-0.4099,-0.4073,-0.4063,-0.4194,-0.4195,-0.4196,-0.4196,0,0,-0.4416,-0.4378,-0.4366,-0.4349,-0.4319,-0.429,-0.4248,-0.4212,-0.4191,-0.4165,-0.4129,-0.408,-0.4093,-0.4074,-0.4073,-0.4044,-0.3984,-0.4062,-0.4062,-0.4047,-0.3909,-0.3897,-0.3885,-0.399,-0.3988,-0.3987,-0.3911,0,-0.4348,-0.4274,-0.4271,-0.4204,-0.4168,-0.4178,-0.4141,-0.4118,-0.4108,-0.4076,-0.4066,-0.403,-0.4051,-0.4039,-0.401,-0.3997,-0.3956,-0.4003,-0.3955,-0.3954,-0.396,-0.3872,-0.3859,-0.3789,-0.3901,-0.39,-0.3898,0,-0.4259,-0.4229,-0.4158,-0.4131,-0.4116,-0.4083,-0.4048,-0.4018,-0.3992,-0.3987,-0.3963,-0.3967,-0.3923,-0.3954,-0.3893,-0.3925,-0.3905,-0.3896,-0.3893,-0.3887,-0.3922,-0.3863,-0.3767,-0.3755,-0.3883,-0.3884,-0.3885,0,-0.4205,-0.4147,-0.4097,-0.4082,-0.4049,-0.4026,-0.4011,-0.3986,-0.3964,-0.3934,-0.3919,-0.3885,-0.3866,-0.3839,-0.3832,-0.3856,-0.3771,-0.3801,-0.3764,-0.3764,-0.3745,-0.3746,-0.3642,-0.3735,-0.3735,-0.3735,-0.3735,0,-0.4129,-0.4084,-0.4072,-0.404,-0.399,-0.3987,-0.3937,-0.3924,-0.3902,-0.3867,-0.3874,-0.3842,-0.3836,-0.3802,-0.3797,-0.3746,-0.3738,-0.3732,-0.3731,-0.373,-0.3731,-0.3717,-0.3721,-0.3732,-0.3733,-0.3733,-0.3734,0,-0.406,-0.405,-0.3995,-0.3968,-0.396,-0.3924,-0.3901,-0.387,-0.3861,-0.3817,-0.3806,-0.3791,-0.3751,-0.3743,-0.3696,-0.3693,-0.3631,-0.3636,-0.364,-0.364,-0.3602,-0.3605,-0.3485,-0.3468,-0.3573,-0.3572,-0.3571,0,-0.4011,-0.3977,-0.3946,-0.3923,-0.3907,-0.387,-0.3847,-0.3842,-0.3817,-0.3784,-0.3757,-0.3718,-0.3686,-0.3622,-0.3606,-0.357,-0.3573,-0.3533,-0.3568,-0.3567,-0.357,-0.3572,-0.3567,-0.3526,-0.3525,-0.3524,-0.3524,0,-0.3925,-0.3921,-0.3888,-0.3851,-0.3823,-0.3795,-0.3768,-0.3749,-0.374,-0.3712,-0.3671,-0.3646,-0.3597,-0.3558,-0.3521,-0.3506,-0.3512,-0.3513,-0.3502,-0.3501,-0.3503,-0.3499,-0.362,-0.3516,-0.3516,-0.3517,-0.3517,-0.3518,-0.3863,-0.3832,-0.3805,-0.3767,-0.3745,-0.3719,-0.3689,-0.3675,-0.364,-0.3599,-0.3599,-0.3553,-0.3526,-0.3477,-0.346,-0.3424,-0.3436,-0.3421,-0.3417,-0.3412,-0.3408,-0.351,-0.3417,-0.3418,-0.3418,-0.3418,-0.3418,0,-0.3776,-0.3758,-0.3723,-0.3684,-0.3653,-0.3662,-0.3632,-0.3606,-0.3566,-0.354,-0.3508,-0.346,-0.3421,-0.3402,-0.3364,-0.3338,-0.334,-0.3328,-0.3329,-0.3325,-0.34,-0.3413,-0.3327,-0.3327,-0.3327,-0.3327,-0.3327,-0.3327,-0.3727,-0.3674,-0.3667,-0.3603,-0.3586,-0.3541,-0.3523,-0.3498,-0.3477,-0.3423,-0.339,-0.3378,-0.3354,-0.3314,-0.3278,-0.3274,-0.3258,-0.3244,-0.3241,-0.3311,-0.332,-0.3329,-0.3341,-0.3241,-0.3241,-0.3169,-0.3168,-0.3168]}]]